Flag for Switzerland Weather past 2 weeks in Yverdon-les-Bains, Vaud, Switzerland

Now
63 °F

Mild.


Feels Like: 63 °F
Forecast: 48 / 69 °F
Wind: 14 mph from Northeast

Location: Payerne

Current Time: May 23, 2015 at 5:02:22 PM

Latest Report: May 23, 2015 at 4:00 PM


Visibility: N/A

Pressure: 29.99 "Hg

Humidity: 43%

Dew point: 40 °F

Location of Yverdon-les-BainsLocation

Historic Weather in Yverdon-les-Bains — Graph

°F

Yverdon-les-Bains temperature yesterday

Maximum temperature yesterday: 60 °F (at 1:00 PM)
Minimum temperature yesterday: 41 °F (at 6:00 AM)
Average temperature yesterday: 52 °F

Past Weeks' High & Low Weather Summary

 TemperatureHumidityPressure
High83 °F (May 13, 5:00 PM)97% (May 9, 2:00 AM)30.39 "Hg (May 9, 2:00 AM)
Low41 °F (May 22, 6:00 AM)23% (May 10, 7:00 PM)29.71 "Hg (May 18, 7:00 PM)
Average57 °F67%30.10 "Hg
* Reported May 8 3:00 PM — May 23 3:00 PM, Yverdon-les-Bains, Weather by CustomWeather, © 2015

Note: Actual official high and low records may vary slightly from our data, if they occured in-between our weather recording intervals... More about our weather records

Advertising

Yverdon-les-Bains weather history for previous 24 hours

 ConditionsComfort  
Time TempWeatherWind HumidityBarometerVisibility
3:00 PM
Sat, May 23
62 °FRefreshingly cool.14 mph48%30.00 "HgN/A
2:00 PM63 °FPartly sunny.13 mph46%30.00 "Hg9 mi
1:00 PM61 °FRefreshingly cool.16 mph47%30.01 "HgN/A
12:40 PM62 °FRefreshingly cool.14 mph47%30.01 "HgN/A
12:00 PM61 °FRefreshingly cool.16 mph46%30.01 "HgN/A
11:00 AM59 °FPartly sunny.14 mph51%30.03 "Hg6 mi
10:00 AM58 °FRefreshingly cool.12 mph55%30.04 "HgN/A
9:00 AM53 °FCool.5 mph71%30.06 "HgN/A
8:00 AM49 °FFog.6 mph75%30.07 "Hg4 mi
7:00 AM47 °FCool.6 mph78%30.07 "HgN/A
6:00 AM46 °FCool.2 mph79%30.07 "HgN/A
4:00 AM47 °FCool.6 mph78%30.09 "HgN/A
3:00 AM48 °FCool.3 mph76%30.11 "HgN/A
2:00 AM49 °FPassing clouds.3 mph74%30.11 "Hg9 mi
1:00 AM49 °FCool.5 mph75%30.14 "HgN/A
12:00 AM49 °FCool.5 mph76%30.14 "HgN/A
10:00 PM
Fri, May 22
53 °FCool.3 mph67%30.14 "HgN/A
9:00 PM56 °FRefreshingly cool.7 mph56%30.14 "HgN/A
8:00 PM56 °FOvercast.7 mph57%30.14 "Hg16 mi
7:00 PM56 °FRefreshingly cool.5 mph56%30.14 "HgN/A
6:00 PM57 °FRefreshingly cool.6 mph54%30.14 "HgN/A
5:00 PM58 °FRefreshingly cool.13 mph50%30.14 "HgN/A
Weather by CustomWeather, © 2015

See weather overviewHow to use our weather pages